Regional Weather Roundup
Issued by NWS

Home | Current Version | Previous Version | Graphics & Text | Print | Product List | Glossary On
Versions: 1 2 3 4 5 6 7 8 9 10 11 12 13 14 15 16 17 18 19 20 21 22 23 24 25 26 27 28 29 30 31 32 33 34 35 36 37 38 39 40 41 42 43 44 45 46 47 48 49 50
000
ASUS45 KSLC 282210
RWRUT

UTAH REGIONAL WEATHER ROUNDUP
NATIONAL WEATHER SERVICE SALT LAKE CITY UT
400 PM MDT THU JUL 28 2016

UTZ001>011-023>025-282300-

NORTHERN UTAH

CITY           SKY/WX    TMP DP  RH WIND       PRES   REMARKS
BRIGHAM CITY     N/A     97  25   7 CALM      30.05F HX  91
HILL AFB       NOT AVBL
LOGAN          SUNNY     96  35  11 CALM      30.06F HX  91
OGDEN          SUNNY     97  33  10 CALM      30.07F HX  91
PROVO AIRPORT  MOSUNNY   97  39  13 N7        30.06F HX  92
SALT LAKE CITY MOSUNNY  101  36  10 N12       30.04F HX  95
VERNAL         SUNNY     98  27   8 CALM      30.07F HX  92
WENDOVER       SUNNY     97  36  11 SE12      30.05F HX  92
HEBER CITY     MOSUNNY   99  27   8 NW8G17    30.14S HX  92

$$

UTZ012>022-026-027-282300-

SOUTHERN/CENTRAL UTAH

CITY           SKY/WX    TMP DP  RH WIND       PRES   REMARKS
BLANDING       MOSUNNY   95  32  11 N5        30.22F HX  90
BRYCE CANYON   CLOUDY    85  30  13 S14       30.33F
CEDAR CITY     PTSUNNY   98  33  10 S22G30    30.14F HX  92
DELTA          SUNNY    100  25   7 NW13      30.05F HX  93
MILFORD        SUNNY    103  23   6 N8G24     30.06F HX  95
MOAB/CYNLANDS  SUNNY    103  23   6 NW8G16    29.99F HX  95
PRICE          MOSUNNY  100  21   6 W14       30.13F HX  93
ST GEORGE      PTCLDY   111  45  10 NE6       29.87F HX 106

$$

REGIONAL REPORTS     COLORADO/ARIZONA

CITY           SKY/WX    TMP DP  RH WIND       PRES   REMARKS
CRAIG, CO      SUNNY     95  23   7 NW17G25   30.17F
GRAND JUNCTION SUNNY    102  25   6 W8        30.02F HX  95
RIFLE          SUNNY     95  27   9 NW13      30.08F
MONTROSE       SUNNY     97  28   8 N9        30.13F HX  91
CORTEZ         SUNNY     96  34  11 MISG      30.13F HX  91
PAGE, AZ       MOSUNNY  107  25   5 N7G16     29.97F HX  99
GRAND CANYON   RAIN      75  48  38 W8G26     30.31R
KINGMAN        SUNNY    106  46  13 W10G17    29.95F HX 102
FLAGSTAFF      PTSUNNY   81  44  27 W6        30.29F

$$

REGIONAL REPORTS    NEVADA/IDAHO/WYOMING

CITY           SKY/WX    TMP DP  RH WIND       PRES   REMARKS
LAS VEGAS, NV  PTSUNNY  114  36   7 VRB5      29.77F HX 107
ELY            PTSUNNY   92  24   8 E8G22     30.20S
ELKO           SUNNY     99  23   6 SW10G22   30.10F HX  92
POCATELLO, ID  SUNNY     92  36  14 MISG      30.10F
BURLEY         SUNNY     90  46  21 VRB7      30.07F
EVANSTON, WY   SUNNY     89  25  10 W25G32    30.28F
ROCK SPRINGS   SUNNY     91  19   7 W21G31    30.20F
KEMMERER         N/A    N/A N/A N/A W15G33    30.28F

$$



USA.gov is the U.S. government's official web portal to all federal, state and local government web resources and services.